TimeEDT,TemperatureF,Dew PointF,Humidity,Sea Level PressureIn,VisibilityMPH,Wind Direction,Wind SpeedMPH,Gust SpeedMPH,PrecipitationIn,Events,Conditions,WindDirDegrees,DateUTC
12:54 AM,37.0,34.0,89,30.34,-9999.0,Calm,Calm,-,N/A,,Clear,0,2013-10-26 04:54:00
1:54 AM,37.9,36.0,93,30.32,-9999.0,Calm,Calm,-,N/A,,Clear,0,2013-10-26 05:54:00
2:54 AM,36.0,33.1,89,30.30,-9999.0,Calm,Calm,-,N/A,,Clear,0,2013-10-26 06:54:00
3:54 AM,34.0,30.9,89,30.30,-9999.0,West,3.5,-,N/A,,Clear,280,2013-10-26 07:54:00
4:54 AM,37.9,35.1,89,30.29,-9999.0,Calm,Calm,-,N/A,,Clear,0,2013-10-26 08:54:00
5:54 AM,36.0,33.1,89,30.29,-9999.0,Calm,Calm,-,N/A,,Clear,0,2013-10-26 09:54:00
6:54 AM,35.1,32.0,89,30.30,7.0,WNW,3.5,-,N/A,,Clear,290,2013-10-26 10:54:00
7:54 AM,36.0,34.0,93,30.31,10.0,West,3.5,-,N/A,,Clear,270,2013-10-26 11:54:00
8:54 AM,45.0,39.9,82,30.31,10.0,WNW,4.6,-,N/A,,Clear,300,2013-10-26 12:54:00
9:54 AM,51.1,39.9,66,30.31,10.0,NW,6.9,-,N/A,,Clear,320,2013-10-26 13:54:00
10:54 AM,55.9,35.1,45,30.30,10.0,NNW,6.9,-,N/A,,Clear,330,2013-10-26 14:54:00
11:54 AM,59.0,35.1,41,30.28,10.0,NNE,5.8,-,N/A,,Clear,20,2013-10-26 15:54:00
12:54 PM,61.0,37.9,42,30.25,10.0,NW,5.8,-,N/A,,Clear,320,2013-10-26 16:54:00
1:54 PM,61.0,39.9,46,30.21,10.0,West,4.6,-,N/A,,Partly Cloudy,260,2013-10-26 17:54:00
2:54 PM,61.0,41.0,48,30.18,10.0,WSW,6.9,-,N/A,,Scattered Clouds,240,2013-10-26 18:54:00
3:54 PM,60.1,41.0,49,30.16,10.0,West,6.9,-,N/A,,Mostly Cloudy,270,2013-10-26 19:54:00
4:54 PM,63.0,41.0,45,30.14,10.0,West,8.1,-,N/A,,Scattered Clouds,260,2013-10-26 20:54:00
5:54 PM,57.9,42.1,56,30.13,10.0,SW,5.8,-,N/A,,Clear,220,2013-10-26 21:54:00
6:54 PM,52.0,44.1,74,30.12,10.0,South,4.6,-,N/A,,Clear,190,2013-10-26 22:54:00
7:54 PM,50.0,43.0,77,30.12,10.0,SW,4.6,-,N/A,,Clear,220,2013-10-26 23:54:00
8:54 PM,46.9,43.0,86,30.13,10.0,WSW,4.6,-,N/A,,Clear,240,2013-10-27 00:54:00
9:54 PM,50.0,39.9,68,30.12,10.0,SW,4.6,-,N/A,,Clear,220,2013-10-27 01:54:00
10:54 PM,45.0,39.0,80,30.12,10.0,Calm,Calm,-,N/A,,Clear,0,2013-10-27 02:54:00
11:54 PM,46.0,39.0,76,30.12,10.0,SSW,3.5,-,N/A,,Clear,210,2013-10-27 03:54:00